Mansfield, OH

12:56 PM EST on November 13, 2019 (GMT -0500)
Mansfield Lahm Regional

Weather History for KMFD - October, 2019

Change the Weather History Date:

Monday, October 21, 2019

  Actual Average Record
Temperature  
Mean Temperature 60 °F 50 °F  
Max Temperature 71 °F 60 °F 80 °F (2007)
Min Temperature 49 °F 40 °F 21 °F (1952)
Degree Days  
Heating Degree Days 5 15  
Month to date heating degree days 173 252  
Since 1 July heating degree days 180 402  
Cooling Degree Days 0 0  
Month to date cooling degree days 35 5  
Year to date cooling degree days 979 630  
Growing Degree Days 10 (Base 50)    
Moisture  
Dew Point 54 °F    
Average Humidity 74    
Maximum Humidity 96    
Minimum Humidity 51    
Precipitation  
Precipitation 0.14 in 0.09 in 0.73 in (2016)
Month to date precipitation 0.98 1.96  
Year to date precipitation 41.15 36.11  
Snow  
Snow 0.00 in 0.10 in - ()
Month to date snowfall 0.0 0.2  
Since 1 July snowfall 0.0 0.2  
Since 1 September snowfall 0.0 0.2  
Snow Depth 0.00 in    
Sea Level Pressure  
Sea Level Pressure 29.88 in    
Wind  
Wind Speed 13 mph (SSE)    
Max Wind Speed 24 mph    
Max Gust Speed 33 mph    
Visibility 7 miles    
Events Fog , Rain    
T = Trace of Precipitation, MM = Missing Value Source: NWS Daily Summary

Daily Weather History Graph

Daily Weather History Graph

Search for Another Location

Airport or City:

Astronomy

Oct. 21, 2019 Rise Set
Actual Time 7:47 AM EDT 6:41 PM EDT
Civil Twilight 7:19 AM EDT 7:08 PM EDT
Nautical Twilight 6:47 AM EDT 7:40 PM EDT
Astronomical Twilight 6:16 AM EDT 8:12 PM EDT
Moon No Moon Rise 3:06 PM EDT (10/21)
Length of Visible Light 11h 49m
Length of Day
10h 53m
Waning Gibbous, 48% of the Moon is Illuminated
Oct 21
Waning Gibbous
Oct 27
New
Nov 4
First Quarter
Nov 12
Full
Nov 19
Last Quarter

Hourly Weather History & Observations

Time (EDT) Temp. Dew Point Humidity Pressure Visibility Wind Dir Wind Speed Gust Speed Precip Events Conditions
12:52 AM 50.0 °F 44.1 °F 80% 29.98 in 10.0 mi Calm Calm - N/A   Clear
1:52 AM 53.1 °F 46.0 °F 77% 29.96 in 10.0 mi SE 3.5 mph - N/A   Clear
2:52 AM 53.1 °F 46.9 °F 80% 29.96 in 10.0 mi ESE 6.9 mph - N/A   Mostly Cloudy
3:52 AM 53.1 °F 48.0 °F 83% 29.96 in 10.0 mi South 4.6 mph - N/A   Overcast
4:52 AM 52.0 °F 46.9 °F 83% 29.94 in 10.0 mi SE 5.8 mph - N/A   Clear
5:52 AM 50.0 °F 48.0 °F 93% 29.96 in 9.0 mi SSE 5.8 mph - N/A   Clear
6:52 AM 52.0 °F 50.0 °F 93% 29.96 in 9.0 mi SE 9.2 mph - N/A   Clear
7:39 AM 52.0 °F 51.1 °F 97% 29.95 in 6.0 mi SE 8.1 mph - N/A   Scattered Clouds
7:47 AM 53.6 °F 51.8 °F 94% 29.95 in 2.0 mi SE 10.4 mph - N/A   Mostly Cloudy
7:48 AM 53.6 °F 51.8 °F 94% 29.95 in 1.2 mi SE 10.4 mph - N/A   Mostly Cloudy
7:52 AM 53.1 °F 53.1 °F 100% 29.94 in 0.5 mi SE 8.1 mph - 0.00 in Fog , Rain Light Rain
7:59 AM 53.1 °F 53.1 °F 100% 29.94 in 0.2 mi SSE 8.1 mph - 0.00 in Fog , Rain Light Rain
8:26 AM 55.0 °F 55.0 °F 100% 29.95 in 1.0 mi SSE 8.1 mph - 0.00 in   Mist
8:35 AM 55.9 °F 55.0 °F 97% 29.94 in 3.0 mi SE 9.2 mph - 0.00 in   Overcast
8:52 AM 55.9 °F 55.9 °F 100% 29.95 in 5.0 mi SE 8.1 mph - 0.00 in   Overcast
9:25 AM 55.9 °F 55.9 °F 100% 29.94 in 1.8 mi SSE 10.4 mph - N/A   Overcast
9:41 AM 55.9 °F 55.9 °F 100% 29.94 in 3.0 mi SE 11.5 mph - N/A   Overcast
9:52 AM 57.0 °F 55.9 °F 96% 29.94 in 6.0 mi SE 12.7 mph - N/A   Overcast
10:52 AM 59.0 °F 57.0 °F 93% 29.91 in 7.0 mi SE 12.7 mph - N/A   Overcast
11:10 AM 60.1 °F 57.0 °F 90% 29.90 in 8.0 mi SE 18.4 mph 25.3 mph N/A   Overcast
11:38 AM 64.0 °F 55.9 °F 75% 29.90 in 10.0 mi SSE 18.4 mph 25.3 mph N/A   Scattered Clouds
11:52 AM 66.0 °F 55.9 °F 70% 29.88 in 10.0 mi SE 17.3 mph 25.3 mph N/A   Partly Cloudy
12:52 PM 66.0 °F 52.0 °F 60% 29.85 in 10.0 mi ESE 21.9 mph 27.6 mph N/A   Clear
1:52 PM 70.0 °F 50.0 °F 49% 29.79 in 10.0 mi SE 21.9 mph 29.9 mph N/A   Clear
2:52 PM 69.1 °F 51.1 °F 53% 29.77 in 10.0 mi SE 21.9 mph - N/A   Overcast
3:52 PM 69.1 °F 54.0 °F 58% 29.78 in 10.0 mi SSE 11.5 mph - N/A   Overcast
4:52 PM 70.0 °F 54.0 °F 57% 29.76 in 10.0 mi SE 13.8 mph - N/A   Partly Cloudy
5:52 PM 70.0 °F 55.0 °F 59% 29.77 in 10.0 mi SSE 16.1 mph - N/A   Mostly Cloudy
6:52 PM 69.1 °F 55.9 °F 63% 29.75 in 10.0 mi SSE 16.1 mph 23.0 mph N/A   Mostly Cloudy
7:52 PM 69.1 °F 55.9 °F 63% 29.74 in 10.0 mi SSE 12.7 mph - N/A   Overcast
8:52 PM 64.9 °F 60.1 °F 84% 29.76 in 8.0 mi SW 17.3 mph 25.3 mph 0.00 in Rain Light Rain
8:59 PM 64.0 °F 60.1 °F 87% 29.76 in 10.0 mi SSW 16.1 mph 23.0 mph 0.00 in Rain Light Rain
9:20 PM 63.0 °F 61.0 °F 93% 29.77 in 7.0 mi SSW 18.4 mph - 0.01 in Rain Light Rain
9:40 PM 62.1 °F 60.1 °F 93% 29.77 in 5.0 mi South 15.0 mph - 0.09 in Rain Light Rain
9:52 PM 62.1 °F 60.1 °F 93% 29.76 in 8.0 mi South 13.8 mph 24.2 mph 0.11 in Rain Light Rain